Location: *
(13.2257°S, 48.7193°W)
Time: 10:46:17
(UTC+00:00)

USA 267 - Pass Details

Date: 13 February 2026
Orbit: 1101 x 1107 km, 123.0° (Epoch: 10 January)

Event Time Altitude Azimuth Distance (km) Brightness Sun altitude
Rises 06:49:44 0° 153° (SSE) 3,935 6.9 -33.6°
Reaches altitude 10° 06:52:18 10° 158° (SSE) 2,975 6.0 -33.1°
Enters shadow 06:57:37 46° 205° (SSW) 1,455 3.8 -31.9°
